Starlink 32665

operational
NORAD ID: 62203 Int'l Des: 2024-229 Owner: SPXS Country: US Constellation: starlink
LEOCIRCULAR

Starlink 32665について

説明を読み込み中...

リアルタイム位置

3D地球を読み込み中...

次回通過

高度履歴

Altitude vs Time

uPlot chart will show altitude changes over time

軌道要素

1 62203U 24229M 25351.12226512 .00008216 00000-0 30771-3 0 9997
2 62203 43.0076 17.0221 0001811 263.3940 96.6706 15.27585483 57932
Epoch: Dec 17, 2025 • Age: 13 hours

現在のステータス

高度 487.4 km
速度 7.63 km/s
衛星直下点 43.16°N, 138.19°E
打ち上げ日 Dec 4, 2024
運用期間 1 years
タイプ internet

技術仕様

分類 Payload
質量 730.00 kg
乾燥質量 700.00 kg
総質量 730.00 kg
長さ 0.30 m
直径 4.10 m
スパン 29.00 m
形状 Box + pan
製造者 SPXS
バスタイプ Starlink V2M
フェーズステータス In Orbit
所有者/国 SPXS/US

大規模コンステレーション

Loading constellations...